BMCB-21 Weather Reports


Display with metric or nautical units.
time (UTC)temp
F
wind
direction
speed
MPH
gust
MPH
rain 1hr
in
rain 24hr
in
rain mn
in
humidity
%
barometer
mb
20260507125049 58 0 0.0 0.0 0.00 0.00 0.00 64 1015.3
20260507124050 57 0 0.0 0.0 0.00 0.00 0.00 64 1015.3
20260507123046 57 0 0.0 0.0 0.00 0.00 0.00 62 1015.2
20260507122050 57 0 0.0 0.0 0.00 0.00 0.00 63 1015.2
20260507121050 57 0 0.0 0.0 0.00 0.00 0.00 65 1015.2
20260507115045 57 0 0.0 0.0 0.00 0.00 0.00 64 1015.1
20260507114046 56 0 0.0 0.0 0.00 0.00 0.00 67 1015.1
20260507113047 56 0 0.0 0.0 0.00 0.00 0.00 68 1015.1
20260507112049 56 0 0.0 0.0 0.00 0.00 0.00 68 1015.1
20260507110049 57 0 0.0 0.0 0.00 0.00 0.00 67 1015.2
20260507105049 57 0 0.0 0.0 0.00 0.00 0.00 69 1015.2
20260507104047 57 0 0.0 0.0 0.00 0.00 0.00 69 1015.2
20260507103045 58 0 0.0 0.0 0.00 0.00 0.00 71 1015.2
20260507102029 58 0 0.0 0.0 0.00 0.00 0.00 72 1015.1
20260507101045 57 0 0.0 0.0 0.00 0.00 0.00 71 1015.1
20260507095040 57 0 0.0 0.0 0.00 0.00 0.00 76 1015.1
20260507093030 56 0 0.0 0.0 0.00 0.01 0.00 75 1015.0
20260507092023 56 0 0.0 0.0 0.00 0.01 0.00 75 1014.9
20260507090021 54 0 0.0 0.0 0.00 0.02 0.00 74 1015.0
20260507085043 55 0 0.0 0.0 0.00 0.03 0.00 73 1014.9
20260507083044 55 0 0.0 0.0 0.00 0.03 0.00 72 1014.8
20260507082043 56 0 0.0 0.0 0.00 0.04 0.00 73 1014.8
20260507081046 55 0 0.0 0.0 0.00 0.04 0.00 73 1014.7
20260507080043 55 0 0.0 0.0 0.00 0.04 0.00 75 1014.6
20260507075044 53 0 0.0 0.0 0.00 0.04 0.00 76 1014.7
20260507074045 53 0 0.0 0.0 0.00 0.04 0.00 76 1014.6
20260507073047 52 0 0.0 0.0 0.00 0.05 0.00 77 1014.6
20260507071043 51 0 0.0 0.0 0.00 0.05 0.00 80 1014.4
20260507070043 51 0 0.0 0.0 0.00 0.05 0.00 84 1014.4
20260507065021 51 0 0.0 0.0 0.00 0.05 0.00 86 1014.4
20260507064044 50 0 0.0 0.0 0.00 0.05 0.00 87 1014.3
20260507063042 50 0 0.0 0.0 0.00 0.06 0.00 87 1014.2
20260507062043 50 0 0.0 0.0 0.00 0.06 0.00 89 1014.1
20260507061045 49 0 0.0 0.0 0.00 0.06 0.00 89 1014.0
20260507060042 48 0 0.0 0.0 0.00 0.06 0.00 90 1014.0
20260507055041 48 0 0.0 0.0 0.00 0.06 0.00 92 1013.9
20260507054043 48 0 0.0 0.0 0.00 0.07 0.00 93 1013.8
20260507053045 48 0 0.0 0.0 0.00 0.08 0.00 94 1013.8
20260507052042 47 0 0.0 0.0 0.00 0.09 0.00 93 1013.7
20260507051045 47 0 0.0 0.0 0.00 0.09 0.00 94 1013.6
20260507050044 47 0 0.0 0.0 0.00 0.10 0.00 94 1013.5
20260507045045 47 0 0.0 0.0 0.00 0.11 0.00 94 1013.4
20260507044045 47 0 0.0 0.0 0.00 0.12 0.00 94 1013.3
20260507043045 47 0 0.0 0.0 0.00 0.13 0.00 94 1013.2
20260507042045 47 0 0.0 0.0 0.00 0.14 0.00 94 1013.1
20260507040047 46 0 0.0 0.0 0.00 0.15 0.00 95 1013.0
20260507033046 47 0 0.0 0.0 0.00 0.16 0.00 94 1012.9
20260507032046 47 0 0.0 0.0 0.00 0.16 0.00 94 1012.8
20260507031046 47 0 0.0 0.0 0.00 0.16 0.00 94 1012.8
20260507030043 47 0 0.0 0.0 0.00 0.16 0.00 93 1012.8
20260507025046 47 0 0.0 0.0 0.00 0.17 0.00 92 1012.8
20260507024043 47 0 0.0 0.0 0.00 0.17 0.00 91 1012.8
20260507022048 47 0 0.0 0.0 0.00 0.19 0.00 90 1012.6
20260507021046 47 0 0.0 0.0 0.00 0.20 0.00 88 1012.5
20260507020045 47 0 0.0 0.0 0.00 0.20 0.00 88 1012.4
20260507015044 47 0 0.0 0.0 0.00 0.21 0.00 89 1012.3
20260507014044 47 0 0.0 0.0 0.00 0.21 0.00 91 1012.3
20260507013259 46 0 0.0 0.0 0.00 0.22 0.00 95 1012.5
20260507012045 47 0 0.0 0.0 0.00 0.23 0.00 96 1012.5
20260507011045 47 0 0.0 0.0 0.00 0.24 0.00 96 1012.3
20260507010048 47 0 0.0 0.0 0.00 0.24 0.00 96 1012.3
20260507004050 47 0 0.0 0.0 0.00 0.26 0.00 96 1012.3
20260507003044 47 0 0.0 0.0 0.00 0.27 0.00 96 1012.2
20260507001044 47 0 0.0 0.0 0.00 0.28 0.00 96 1012.2
20260507000045 47 0 0.0 0.0 0.00 0.29 0.00 96 1012.2
20260506232049 46 0 0.0 0.0 0.00 0.33 0.00 96 1011.9
20260506231047 46 0 0.0 0.0 0.00 0.34 0.00 96 1011.9
20260506230021 46 0 0.0 0.0 0.00 0.35 0.00 97 1011.8
20260506225026 46 0 0.0 0.0 0.00 0.35 0.00 97 1011.8
20260506224022 46 0 0.0 0.0 0.00 0.35 0.00 97 1011.7
20260506223028 45 0 0.0 0.0 0.00 0.36 0.00 97 1011.6
20260506222022 45 0 0.0 0.0 0.00 0.36 0.00 97 1011.6
20260506221021 45 0 0.0 0.0 0.00 0.37 0.00 97 1011.5
20260506220028 44 0 0.0 0.0 0.00 0.38 0.00 97 1011.5
20260506214021 43 0 0.0 0.0 0.00 0.39 0.38 96 1011.4
20260506213024 43 0 0.0 0.0 0.00 0.39 0.38 96 1011.3
20260506212030 42 0 0.0 0.0 0.00 0.40 0.38 95 1011.3
20260506211026 43 0 0.0 0.0 0.00 0.41 0.38 94 1011.1
20260506210034 43 0 0.0 0.0 0.00 0.42 0.38 93 1011.0
20260506205025 44 0 0.0 0.0 0.00 0.43 0.38 92 1010.9
20260506204025 44 0 0.0 0.0 0.00 0.43 0.38 91 1010.8
20260506202049 46 0 0.0 0.0 0.00 0.44 0.38 89 1010.7
20260506201045 47 0 0.0 0.0 0.00 0.45 0.38 87 1010.7
20260506195029 47 0 0.0 0.0 0.00 0.46 0.38 85 1010.5
20260506194021 48 0 0.0 0.0 0.00 0.46 0.38 83 1010.3
20260506193022 49 0 0.0 0.0 0.00 0.47 0.38 82 1010.3
20260506192035 50 0 0.0 0.0 0.00 0.47 0.38 79 1010.1
20260506191022 51 0 0.0 0.0 0.00 0.48 0.38 78 1010.0
20260506190020 52 0 0.0 0.0 0.00 0.49 0.38 77 1009.7
20260506183022 53 0 0.0 0.0 0.00 0.50 0.38 80 1009.5
20260506182021 53 0 0.0 0.0 0.00 0.50 0.38 79 1009.3
20260506181021 54 0 0.0 0.0 0.00 0.51 0.38 78 1009.1
20260506180045 54 0 0.0 0.0 0.00 0.51 0.38 80 1009.0
20260506175044 54 0 0.0 0.0 0.00 0.52 0.38 84 1008.9
20260506174045 54 0 0.0 0.0 0.00 0.52 0.38 83 1008.7
20260506173027 54 0 0.0 0.0 0.00 0.53 0.38 81 1008.6
20260506172021 54 0 0.0 0.0 0.00 0.53 0.38 81 1008.6
20260506171047 54 0 0.0 0.0 0.00 0.53 0.38 81 1008.5
20260506165021 55 0 0.0 0.0 0.00 0.53 0.38 78 1008.4
20260506164047 55 0 0.0 0.0 0.00 0.53 0.38 78 1008.3
20260506163044 55 0 0.0 0.0 0.00 0.53 0.38 78 1008.3
20260506161021 55 0 0.0 0.0 0.00 0.53 0.38 78 1008.4
20260506160042 55 0 0.0 0.0 0.00 0.53 0.38 77 1008.3
20260506155021 55 0 0.0 0.0 0.00 0.53 0.38 75 1008.3
20260506154052 55 0 0.0 0.0 0.00 0.53 0.38 75 1008.3
20260506153021 55 0 0.0 0.0 0.00 0.53 0.38 76 1008.2
20260506152046 56 0 0.0 0.0 0.00 0.53 0.38 77 1008.1
20260506150044 56 0 0.0 0.0 0.00 0.53 0.38 79 1008.1
20260506145049 56 0 0.0 0.0 0.00 0.53 0.38 80 1008.0
20260506144046 56 0 0.0 0.0 0.00 0.53 0.38 82 1008.0
20260506143044 55 0 0.0 0.0 0.00 0.53 0.38 81 1008.1
20260506142022 55 0 0.0 0.0 0.00 0.53 0.38 81 1008.1
20260506141022 55 0 0.0 0.0 0.00 0.53 0.38 83 1008.2
20260506140050 55 0 0.0 0.0 0.00 0.53 0.38 83 1008.2
20260506135050 55 0 0.0 0.0 0.00 0.53 0.38 84 1008.2
20260506134022 55 0 0.0 0.0 0.00 0.53 0.38 85 1008.2
20260506133022 54 0 0.0 0.0 0.00 0.53 0.38 84 1008.2
20260506132042 54 0 0.0 0.0 0.00 0.53 0.38 86 1008.2
20260506131021 53 0 0.0 0.0 0.00 0.53 0.38 86 1008.2